[ hide orbit diagram ]
For accurate long-term ephemerides, please instead use our Horizons system.This orbit viewer was implemented using two-body methods, and hence should not be used for determining accurate long-term trajectories (over several years or decades) or planetary encounter circumstances.
Orbital Elements at Epoch 2456929.5 (2014-Sep-29.0) TDB
Reference: JPL 12 (heliocentric ecliptic J2000)
Element | Value | Uncertainty (1-sigma) | Units |
e | .4128092565835439 | 8.4482e-05 | |
a | 4.063661967545938 | 0.00051585 | au |
q | 2.386144691716478 | 0.00018022 | au |
i | 1.088215698075711 | 0.0001254 | deg |
node | 126.5411414693427 | 0.012541 | deg |
peri | 213.8478400458884 | 0.023929 | deg |
M | 12.45423706165399 | 0.0042786 | deg |
tp | 2456825.988306070404 (2014-Jun-17.48830607) | 0.053884 | TDB |
period | 2992.090935011131 8.19 | 0.56973 0.00156 | d yr |
n | .1203171988483234 | 2.291e-05 | deg/d |
Q | 5.741179243375399 | 0.00072879 | au |
|
| | Orbit Determination Parameters
Additional Information
|
[ show covariance matrix ]
[ show close-approach data ]
Alternate Designations
Perihelion Year (est.) | New-Style Desig | Roman Numeral | Year/ Letter | 2014.5 | P/2014 R5 | | |
|
|